User: anonymous   Login
Location: Ashtead
(51.3000°N, 0.3000°W)
Time: 15:36:02
(UTC+00:00)
Language:

Resurs 1-4 Rocket - Orbit

View from above orbital plane
View from above orbital plane
View from above satellite
View from above satellite

Ground track
Ground track

The orbit data is extracted from the following two-line orbital elements,

1 25400U 98043G   24062.44833407  .00000132  00000-0  74461-4 0  9994
2 25400  98.7349   3.8208 0009873   1.2280 358.8923 14.25707101334156
Epoch (UTC): 02 March 2024 10:45:36
Eccentricity: 0.0009873
inclination: 98.7349°
perigee height: 799 km
apogee height: 813 km
right ascension of ascending node: 3.8208°
argument of perigee: 1.2280°
revolutions per day: 14.25707101
mean anomaly at epoch: 358.8923°
orbit number at epoch: 33415

The dashed part of the orbit path shows where the satellite is in the earth's shadow,  

DLR